Wolf Creek, OR

7:14 PM PST on February 20, 2017 (GMT -0800)
Sexton Summit

Weather History for KSXT - September, 2012

Change the Weather History Date:

Thursday, September 27, 2012

  Actual Average Record
Temperature  
Mean Temperature 70 °F -  
Max Temperature 80 °F 65 °F 91 °F (2003)
Min Temperature 62 °F 48 °F 37 °F (1999)
Cooling Degree Days 6    
Growing Degree Days 20 (Base 50)    
Moisture  
Dew Point 39 °F    
Average Humidity 33    
Maximum Humidity 43    
Minimum Humidity 19    
Precipitation  
Precipitation 0.00 in - - ()
Sea Level Pressure  
Sea Level Pressure 29.90 in    
Wind  
Wind Speed 5 mph (East)    
Max Wind Speed 9 mph    
Max Gust Speed -    
Visibility 10 miles    
Events      
Averages and records for this station are not official NWS values.
T = Trace of Precipitation, MM = Missing Value Source: NWS Daily Summary

Daily Weather History Graph

Daily Weather History Graph

Search for Another Location

Airport or City:

Trip Planner

Search our weather history database for the weather conditions in past years. The results will help you decide how hot, cold, wet, or windy it might be!

Date:

Astronomy

Sep. 27, 2012 Rise Set
Actual Time 7:06 AM PDT 7:00 PM PDT
Civil Twilight 6:38 AM PDT 7:28 PM PDT
Nautical Twilight 6:05 AM PDT 8:01 PM PDT
Astronomical Twilight 5:32 AM PDT 8:34 PM PDT
Moon 5:36 PM PDT (9/27) 4:39 AM PDT (9/27)
Length of Visible Light 12h 50m
Length of Day
11h 53m
Waxing Gibbous, 94% of the Moon is Illuminated
Sep 27
Waxing Gibbous
Sep 29
Full
Oct 8
Last Quarter
Oct 15
New
Oct 21
First Quarter

Hourly Weather History & Observations

Time (PDT) Temp. Dew Point Humidity Pressure Visibility Wind Dir Wind Speed Gust Speed Precip Events Conditions
12:56 AM 66.9 °F 30.0 °F 25% 29.91 in 10.0 mi Calm Calm - N/A   Clear
1:56 AM 64.0 °F 33.1 °F 31% 29.91 in 10.0 mi SE 6.9 mph - N/A   Clear
2:56 AM 63.0 °F 37.0 °F 38% 29.92 in 10.0 mi SE 9.2 mph - N/A   Clear
3:56 AM 63.0 °F 37.9 °F 40% 29.91 in 10.0 mi SE 9.2 mph - N/A   Clear
4:56 AM 63.0 °F 37.0 °F 38% 29.91 in 10.0 mi ESE 9.2 mph - N/A   Clear
5:56 AM 62.1 °F 39.0 °F 43% 29.92 in 10.0 mi ESE 8.1 mph - N/A   Clear
6:56 AM 63.0 °F 39.9 °F 43% 29.93 in 10.0 mi East 6.9 mph - N/A   Clear
7:56 AM 64.9 °F 41.0 °F 42% 29.93 in 10.0 mi ESE 8.1 mph - N/A   Clear
8:56 AM 66.9 °F 42.1 °F 40% 29.92 in 10.0 mi ESE 9.2 mph - N/A   Clear
9:56 AM 72.0 °F 44.1 °F 37% 29.94 in 10.0 mi SE 6.9 mph - N/A   Clear
10:56 AM 73.0 °F 39.9 °F 30% 29.91 in 10.0 mi SE 6.9 mph - N/A   Clear
11:56 AM 75.0 °F 39.9 °F 28% 29.90 in 10.0 mi SE 5.8 mph - N/A   Clear
12:56 PM 77.0 °F 41.0 °F 28% 29.90 in 10.0 mi Variable 3.5 mph - N/A   Clear
1:56 PM 78.1 °F 42.1 °F 28% 29.89 in 10.0 mi Calm Calm - 0.00 in   Clear
2:56 PM 78.1 °F 43.0 °F 29% 29.88 in 10.0 mi Calm Calm - 0.00 in   Clear
3:56 PM 79.0 °F 33.1 °F 19% 29.87 in 10.0 mi Calm Calm - N/A   Clear
4:56 PM 77.0 °F 33.1 °F 20% 29.86 in 10.0 mi NW 3.5 mph - N/A   Clear
5:56 PM 75.9 °F 39.0 °F 26% 29.86 in 10.0 mi Calm Calm - N/A   Clear
6:56 PM 70.0 °F 42.1 °F 36% 29.86 in 10.0 mi NNW 6.9 mph - N/A   Clear
7:56 PM 68.0 °F 41.0 °F 37% 29.87 in 10.0 mi NNW 8.1 mph - N/A   Clear
8:56 PM 68.0 °F 39.0 °F 35% 29.88 in 10.0 mi NNW 9.2 mph - N/A   Clear
9:56 PM 66.9 °F 37.9 °F 34% 29.87 in 10.0 mi NNW 8.1 mph - N/A   Clear
10:56 PM 68.0 °F 36.0 °F 31% 29.88 in 10.0 mi NNW 6.9 mph - N/A   Clear
11:56 PM 69.1 °F 37.0 °F 31% 29.87 in 10.0 mi NW 3.5 mph - N/A   Clear